Погода в Кольмаре

Франция     48°04′48″N   7°21′53″E
темп.,
°C
ветер,
м/с
пор.,
м/с
влажн.,
%
обл.,
%
осадки,
мм/ч
давл.,
гПа
погр.,
м
17 июня, чт
чт1723:00+21зсз227496 0.0 101217
02:00+20з217699 0.0 101212
05:00+19зюз2281100 0.0 101216
08:00+23ююз127394 0.0 101398
11:00+28ююв235174 0.0 10131263
14:00+30ююв234056 0.0 10122075
17:00+30вюв224311 0.0 10121369
20:00+26ссв11711 0.0 101113
18 июня, пт
пт1823:00+22зсз2272100 0.0 101321
02:00+19зсз3489100 0.6 101467
05:00+17зсз119088 0.3 101511
08:00+20зсз0185100 0.3 1014107
11:00+26вюв1154100 0.0 1014667
14:00+29в22450 0.0 10131330
17:00+29св114679 0.1 10131717
20:00+23з2278100 0.6 101433
19 июня, сб
сб1923:00+18зюз11925 2.1 101622
02:00+17з229146 2.1 101616
05:00+17сз1193100 0.0 101711
08:00+19св119093 0.0 1017170
11:00+24в2169100 0.0 1016571
14:00+27всв2255100 0.0 1014953
17:00+28вюв125691 0.0 1012933
20:00+25всв118071 0.1 101018
20 июня, вс
вс2023:00+21зсз2183100 0.0 101013
02:00+20з118383 0.0 100812
05:00+21юз1173100 0.1 100814
08:00+18сз2293100 1.3 100851
11:00+24зсз1364100 0.4 10091108
14:00+21св0181100 12.5 1009320
17:00+19св2294100 3.9 1009283
20:00+18вюв1196100 6.3 1009160
21 июня, пн
пн2123:00+16юз239949 0.8 1009111
02:00+14юз229380 0.8 100830
05:00+14юз229342 0.0 100832
08:00+16юз239397 0.2 100773
11:00+21юз146823 0.3 1008688
14:00+24вюв115394 0.8 10071292
17:00+22зюз247419 1.9 1007809
20:00+16ю249653 4.2 1009148